When you browse on this site, cookies collect data to enhance your experience and personalize the content and advertising you see.
Visit our Privacy Policy to learn more. By continuing to use the site, you agree to this use of cookies and data.

Météo par heure à Torez

Ce jour, 26 Septembre, Samedi

Heure Température Précipitation Vent Pression Humidité
00:00 +17°C° 0 mm 4 m/s 741 mmHg 42%
01:00 +17°C° 0 mm 4 m/s 741 mmHg 43%
02:00 +17°C° 0 mm 4 m/s 741 mmHg 44%
03:00 +15°C° 0 mm 4 m/s 741 mmHg 44%
04:00 +15°C° 0 mm 4 m/s 741 mmHg 44%
05:00 +15°C° 0 mm 5 m/s 741 mmHg 44%
06:00 +15°C° 0 mm 5 m/s 741 mmHg 43%
07:00 +17°C° 0 mm 6 m/s 741 mmHg 39%
08:00 +19°C° 0 mm 6 m/s 741 mmHg 34%
09:00 +21°C° 0 mm 7 m/s 741 mmHg 30%
10:00 +23°C° 0 mm 8 m/s 741 mmHg 25%
11:00 +26°C° 0 mm 8 m/s 741 mmHg 21%
12:00 +28°C° 0 mm 9 m/s 741 mmHg 17%
13:00 +28°C° 0 mm 9 m/s 741 mmHg 17%
14:00 +29°C° 0 mm 9 m/s 741 mmHg 17%
15:00 +29°C° 0 mm 8 m/s 741 mmHg 16%
16:00 +28°C° 0 mm 8 m/s 741 mmHg 19%
17:00 +27°C° 0 mm 7 m/s 741 mmHg 22%
18:00 +24°C° 0 mm 6 m/s 741 mmHg 25%
19:00 +23°C° 0 mm 6 m/s 741 mmHg 28%
20:00 +22°C° 0 mm 7 m/s 741 mmHg 30%
21:00 +21°C° 0 mm 7 m/s 741 mmHg 33%
22:00 +21°C° 0 mm 7 m/s 741 mmHg 35%
23:00 +20°C° 0 mm 7 m/s 742 mmHg 37%

Demain, 27 Septembre, Dimanche

Heure Température Précipitation Vent Pression Humidité
00:00 +18°C° 0 mm 7 m/s 742 mmHg 39%
01:00 +17°C° 0 mm 7 m/s 742 mmHg 41%
02:00 +17°C° 0 mm 7 m/s 742 mmHg 44%
03:00 +16°C° 0 mm 7 m/s 742 mmHg 46%
04:00 +15°C° 0 mm 7 m/s 742 mmHg 49%
05:00 +14°C° 0 mm 7 m/s 742 mmHg 51%
06:00 +14°C° 0 mm 7 m/s 743 mmHg 54%
07:00 +15°C° 0 mm 7 m/s 743 mmHg 52%
08:00 +16°C° 0 mm 8 m/s 743 mmHg 50%
09:00 +17°C° 0 mm 8 m/s 744 mmHg 48%
10:00 +19°C° 0 mm 9 m/s 744 mmHg 43%
11:00 +22°C° 0 mm 9 m/s 744 mmHg 38%
12:00 +24°C° 0 mm 9 m/s 744 mmHg 33%
13:00 +26°C° 0 mm 9 m/s 744 mmHg 32%
14:00 +27°C° 0 mm 9 m/s 744 mmHg 31%
15:00 +28°C° 0 mm 9 m/s 743 mmHg 31%
16:00 +27°C° 0 mm 8 m/s 744 mmHg 32%
17:00 +26°C° 0 mm 7 m/s 744 mmHg 33%
18:00 +24°C° 0 mm 6 m/s 744 mmHg 34%
19:00 +23°C° 0.1 mm 7 m/s 744 mmHg 37%
20:00 +22°C° 0.1 mm 7 m/s 744 mmHg 40%
21:00 +21°C° 0.1 mm 8 m/s 744 mmHg 43%
22:00 +21°C° 0.3 mm 7 m/s 745 mmHg 47%
23:00 +20°C° 0.3 mm 7 m/s 745 mmHg 51%

Après-demain, 28 Septembre, Lundi

Heure Température Précipitation Vent Pression Humidité
00:00 +19°C° 0.3 mm 6 m/s 745 mmHg 54%
01:00 +17°C° 0.7 mm 6 m/s 745 mmHg 57%
02:00 +16°C° 0.7 mm 6 m/s 745 mmHg 60%
03:00 +15°C° 0.7 mm 6 m/s 745 mmHg 63%
04:00 +15°C° 0.3 mm 6 m/s 746 mmHg 64%
05:00 +14°C° 0.3 mm 6 m/s 746 mmHg 65%
06:00 +14°C° 0.3 mm 6 m/s 746 mmHg 66%
07:00 +15°C° 0 mm 6 m/s 747 mmHg 62%
08:00 +15°C° 0 mm 6 m/s 747 mmHg 58%
09:00 +16°C° 0 mm 6 m/s 747 mmHg 54%
10:00 +19°C° 0 mm 6 m/s 747 mmHg 49%
11:00 +21°C° 0 mm 7 m/s 747 mmHg 43%
12:00 +23°C° 0 mm 7 m/s 747 mmHg 38%
13:00 +24°C° 0 mm 7 m/s 747 mmHg 35%
14:00 +26°C° 0 mm 6 m/s 747 mmHg 32%
15:00 +27°C° 0 mm 6 m/s 747 mmHg 29%
16:00 +26°C° 0 mm 6 m/s 747 mmHg 31%
17:00 +25°C° 0 mm 5 m/s 747 mmHg 32%
18:00 +23°C° 0 mm 4 m/s 747 mmHg 34%
19:00 +22°C° 0 mm 5 m/s 747 mmHg 36%
20:00 +21°C° 0 mm 6 m/s 747 mmHg 38%
21:00 +20°C° 0 mm 7 m/s 747 mmHg 40%
22:00 +18°C° 0 mm 7 m/s 747 mmHg 42%
23:00 +18°C° 0 mm 7 m/s 747 mmHg 44%

29 Septembre, Mardi

Heure Température Précipitation Vent Pression Humidité
00:00 +17°C° 0 mm 7 m/s 747 mmHg 46%
01:00 +16°C° 0 mm 7 m/s 747 mmHg 49%
02:00 +15°C° 0 mm 7 m/s 746 mmHg 51%
03:00 +15°C° 0 mm 7 m/s 746 mmHg 54%
04:00 +14°C° 0 mm 7 m/s 746 mmHg 57%
05:00 +14°C° 0 mm 7 m/s 746 mmHg 61%
06:00 +12°C° 0 mm 7 m/s 746 mmHg 64%
07:00 +12°C° 0 mm 7 m/s 746 mmHg 63%
08:00 +13°C° 0 mm 8 m/s 746 mmHg 62%
09:00 +13°C° 0 mm 8 m/s 746 mmHg 60%
10:00 +16°C° 0 mm 8 m/s 745 mmHg 53%
11:00 +18°C° 0 mm 9 m/s 745 mmHg 45%
12:00 +19°C° 0 mm 9 m/s 745 mmHg 38%
13:00 +21°C° 0 mm 9 m/s 745 mmHg 35%
14:00 +22°C° 0 mm 9 m/s 744 mmHg 33%
15:00 +23°C° 0 mm 9 m/s 744 mmHg 30%
16:00 +23°C° 0 mm 8 m/s 744 mmHg 30%
17:00 +22°C° 0 mm 8 m/s 743 mmHg 30%
18:00 +22°C° 0 mm 7 m/s 743 mmHg 30%
19:00 +21°C° 0 mm 8 m/s 743 mmHg 31%
20:00 +21°C° 0 mm 8 m/s 742 mmHg 32%
21:00 +19°C° 0 mm 9 m/s 742 mmHg 33%
22:00 +19°C° 0 mm 9 m/s 742 mmHg 35%
23:00 +18°C° 0 mm 9 m/s 742 mmHg 37%

30 Septembre, Mercredi

Heure Température Précipitation Vent Pression Humidité
00:00 +18°C° 0 mm 9 m/s 742 mmHg 39%
01:00 +17°C° 0 mm 9 m/s 741 mmHg 43%
02:00 +16°C° 0 mm 9 m/s 741 mmHg 47%
03:00 +15°C° 0 mm 9 m/s 741 mmHg 51%
04:00 +15°C° 0 mm 9 m/s 741 mmHg 52%
05:00 +13°C° 0 mm 8 m/s 741 mmHg 53%
06:00 +13°C° 0 mm 8 m/s 741 mmHg 53%
07:00 +13°C° 0 mm 9 m/s 740 mmHg 52%
08:00 +15°C° 0 mm 9 m/s 740 mmHg 50%
09:00 +16°C° 0 mm 10 m/s 740 mmHg 48%
10:00 +17°C° 0 mm 10 m/s 740 mmHg 46%
11:00 +18°C° 0 mm 10 m/s 740 mmHg 43%
12:00 +19°C° 0 mm 10 m/s 740 mmHg 41%
13:00 +21°C° 0 mm 11 m/s 739 mmHg 38%
14:00 +21°C° 0 mm 11 m/s 739 mmHg 34%
15:00 +22°C° 0 mm 11 m/s 739 mmHg 31%
16:00 +22°C° 0.1 mm 10 m/s 739 mmHg 33%
17:00 +21°C° 0.1 mm 8 m/s 739 mmHg 34%
18:00 +20°C° 0.1 mm 7 m/s 739 mmHg 36%
19:00 +20°C° 0.1 mm 8 m/s 739 mmHg 38%
20:00 +18°C° 0.1 mm 9 m/s 739 mmHg 39%
21:00 +18°C° 0.1 mm 10 m/s 739 mmHg 41%
22:00 +18°C° 0.1 mm 10 m/s 739 mmHg 41%
23:00 +17°C° 0.1 mm 10 m/s 739 mmHg 42%

1 Octobre, Jeudi

Heure Température Précipitation Vent Pression Humidité
00:00 +17°C° 0.1 mm 10 m/s 740 mmHg 43%
01:00 +16°C° 0 mm 10 m/s 740 mmHg 46%
02:00 +15°C° 0 mm 9 m/s 740 mmHg 49%
03:00 +15°C° 0 mm 9 m/s 740 mmHg 52%
04:00 +13°C° 0.2 mm 9 m/s 740 mmHg 59%
05:00 +13°C° 0.2 mm 8 m/s 740 mmHg 65%
06:00 +12°C° 0.2 mm 8 m/s 740 mmHg 72%
07:00 +12°C° 0.5 mm 8 m/s 741 mmHg 70%
08:00 +12°C° 0.5 mm 8 m/s 741 mmHg 69%
09:00 +12°C° 0.5 mm 7 m/s 741 mmHg 67%
10:00 +14°C° 1.2 mm 7 m/s 742 mmHg 65%
11:00 +15°C° 1.2 mm 7 m/s 742 mmHg 62%
12:00 +16°C° 1.2 mm 6 m/s 742 mmHg 60%
13:00 +16°C° 0.5 mm 5 m/s 742 mmHg 62%
14:00 +15°C° 0.5 mm 4 m/s 742 mmHg 65%
15:00 +16°C° 0.5 mm 3 m/s 742 mmHg 68%
16:00 +17°C° 0.1 mm 3 m/s 741 mmHg 61%
17:00 +17°C° 0.1 mm 3 m/s 741 mmHg 54%
18:00 +18°C° 0.1 mm 3 m/s 741 mmHg 47%
19:00 +18°C° 0.1 mm 4 m/s 741 mmHg 45%
20:00 +17°C° 0.1 mm 5 m/s 742 mmHg 43%
21:00 +17°C° 0.1 mm 6 m/s 742 mmHg 41%
22:00 +17°C° 0 mm 6 m/s 742 mmHg 42%
23:00 +16°C° 0 mm 6 m/s 742 mmHg 43%
Voir plus